[[{"header":{"parameterUnit":"m.s-1","parameterCategory":1,"la1":30.2991,"la2":30.254,"lo1":-89.0895,"lo2":-89.0444,"dy":0.0017,"dx":0.0017,"nx":28,"ny":28,"refTime":"2024-02-08T09:00:00:Z","depth":0,"parameterNumber":2,"parameterNumberName":"U-component_of_WINDS"},"data":[0,0,0,0,0,0,0,0,0,0,0,0,0,0,0,0,0,0,0,0,0,0,0,0,0,0,0,0,0,0,0,0,0,0,0,0,0,0,0,0,0,0,0,0,0,0,0,0,0,0,0,0,0,0,0,0,0,0,-2.5879,-2.588,0,-2.5937,-2.5937,-2.5938,-2.5923,-2.5921,-2.592,-2.5919,-2.5977,-2.5979,-2.5982,0,0,0,0,0,0,0,0,0,0,0,0,0,-2.5753,-2.5756,-2.5879,-2.588,-2.588,-2.5937,-2.5937,-2.5938,-2.5923,-2.5921,-2.592,-2.5919,-2.5976,-2.5979,-2.5982,0,0,0,0,0,0,0,0,0,0,0,0,0,-2.5809,-2.5756,-2.5879,-2.5879,-2.588,-2.5937,-2.5938,-2.5938,-2.5923,-2.5921,-2.592,-2.5918,-2.5975,-2.5979,-2.5983,-2.6041,0,0,-2.5995,-2.5996,0,0,0,0,0,0,0,0,-2.5806,-2.5814,-2.5879,-2.588,-2.588,-2.5921,-2.5914,-2.5973,-2.5924,-2.5907,-2.5919,-2.5917,-2.5959,-2.5965,-2.5979,-2.6044,-2.6046,-2.5995,-2.5997,-2.5999,-2.6,0,0,0,0,0,0,0,-2.5802,-2.5811,-2.5902,-2.588,-2.5881,-2.5876,-2.5882,-2.5925,-2.5942,-2.5908,-2.5907,-2.5914,-2.596,-2.5975,-2.598,-2.6047,-2.5995,-2.5998,-2.6001,-2.6002,-2.6163,-2.6165,0,0,0,0,0,0,-2.5798,-2.5808,-2.59,-2.5903,-2.5838,-2.588,-2.5887,-2.5909,-2.5941,-2.5945,-2.5916,-2.5913,-2.597,-2.5976,-2.5982,-2.6052,-2.5999,-2.6003,-2.6005,-2.6161,-2.6163,-2.6165,0,0,0,0,0,0,-2.5795,-2.5806,-2.5898,-2.5856,-2.5867,-2.5884,-2.591,-2.5912,-2.5927,-2.5947,-2.595,-2.5929,-2.5968,-2.5977,-2.6027,-2.6054,-2.6004,-2.6008,-2.6159,-2.6162,-2.6164,-2.6193,0,0,0,0,0,0,-2.5792,-2.5805,-2.5828,-2.5856,-2.5869,-2.5941,-2.5911,-2.5914,-2.5934,-2.5932,-2.596,-2.5963,-2.5968,-2.6021,-2.6031,-2.6059,-2.6011,-2.6156,-2.616,-2.6163,-2.619,-2.6197,-2.6203,0,0,0,0,0,-2.5787,-2.5834,-2.5829,-2.5841,-2.5898,-2.5943,-2.595,-2.5955,-2.5937,-2.5959,-2.5972,-2.5962,-2.605,-2.6026,-2.6037,-2.6067,-2.6155,-2.6159,-2.6163,-2.6187,-2.6196,-2.6203,0,0,0,0,0,0,-2.5808,-2.5837,-2.5833,-2.589,-2.5914,-2.594,-2.5969,-2.5964,-2.5993,-2.5989,-2.5993,-2.6,-2.6051,-2.6064,-2.6037,-2.6125,-2.61,-2.6106,-2.6114,-2.6122,-2.6129,-2.6124,-2.6014,0,0,0,0,0,-2.5819,-2.5854,-2.5878,-2.5926,-2.5938,-2.5952,-2.5971,-2.5973,-2.5998,-2.6008,-2.6024,-2.6049,-2.6081,-2.6103,-2.6134,-2.6193,-2.6198,-2.6218,-2.6225,-2.623,-2.6235,-2.6266,-2.6275,-2.618,-2.618,-2.6179,0,0,-2.5842,-2.5863,-2.5884,-2.593,-2.5949,-2.5984,-2.596,-2.5998,-2.6024,-2.6013,-2.6061,-2.6075,-2.6102,-2.6156,-2.6181,-2.6168,-2.6263,-2.6235,-2.6239,-2.6242,-2.6271,-2.628,-2.6288,-2.6183,-2.6182,-2.6182,0,0,-2.5902,-2.5922,-2.5964,-2.5984,-2.6013,-2.6022,-2.6032,-2.6059,-2.6068,-2.6116,-2.6109,-2.6139,-2.6196,-2.6216,-2.6233,-2.6302,-2.6293,-2.6312,-2.6344,-2.6375,-2.6382,-2.6389,-2.6412,-2.642,-2.6317,-2.6317,-2.6317,0,-2.5927,-2.598,-2.5986,-2.6025,-2.6045,-2.6038,-2.608,-2.6098,-2.6136,-2.615,-2.6136,-2.6207,-2.6225,-2.6283,-2.63,-2.6315,-2.6326,-2.6308,-2.6381,-2.6388,-2.6394,-2.6416,-2.6425,-2.6319,-2.6319,-2.6319,-2.6319,0,-2.6009,-2.6046,-2.6076,-2.6113,-2.6137,-2.6177,-2.6188,-2.6212,-2.6212,-2.6222,-2.6271,-2.6293,-2.6328,-2.6342,-2.6342,-2.6401,-2.6392,-2.638,-2.6354,-2.6405,-2.6425,-2.6434,-2.6322,-2.6321,-2.6321,-2.632,0,0,-2.6082,-2.6123,-2.6133,-2.615,-2.6182,-2.621,-2.6251,-2.6286,-2.6305,-2.6332,-2.6365,-2.6413,-2.6402,-2.6422,-2.6424,-2.6451,-2.6503,-2.6435,-2.6436,-2.6446,-2.6567,-2.6575,-2.6585,-2.6498,-2.65,-2.6501,-2.6564,0,-2.6144,-2.6214,-2.6221,-2.6284,-2.6317,-2.6312,-2.6346,-2.637,-2.6381,-2.641,-2.6422,-2.6456,-2.644,-2.6451,-2.6478,-2.6491,-2.6527,-2.6487,-2.6528,-2.6529,-2.6519,-2.6596,-2.6604,-2.6662,-2.6573,-2.6574,-2.6575,0,-2.6225,-2.6254,-2.6321,-2.6348,-2.6363,-2.6394,-2.6426,-2.6455,-2.6482,-2.6488,-2.651,-2.6509,-2.655,-2.6524,-2.6579,-2.6552,-2.6569,-2.6579,-2.6581,-2.6583,-2.6554,-2.6599,-2.6681,-2.6689,-2.6588,-2.6587,-2.6586,0,-2.6269,-2.6326,-2.6373,-2.6388,-2.6421,-2.6443,-2.6458,-2.6482,-2.6503,-2.6532,-2.6545,-2.6578,-2.6596,-2.6622,-2.6629,-2.661,-2.6684,-2.6659,-2.6689,-2.6689,-2.6703,-2.6702,-2.6788,-2.6718,-2.6718,-2.6718,-2.6717,0,-2.6337,-2.6377,-2.6393,-2.6422,-2.6467,-2.6474,-2.6519,-2.6532,-2.6555,-2.6585,-2.6583,-2.6612,-2.6621,-2.6652,-2.6658,-2.6702,-2.6711,-2.6716,-2.6717,-2.6715,-2.6714,-2.6725,-2.6721,-2.672,-2.6719,-2.6719,-2.6719,0,-2.6393,-2.6406,-2.6457,-2.6485,-2.6493,-2.6525,-2.6548,-2.6575,-2.6587,-2.6625,-2.6635,-2.6652,-2.6688,-2.6699,-2.6742,-2.6746,-2.6797,-2.6796,-2.6788,-2.6788,-2.6817,-2.6813,-2.6912,-2.6924,-2.6847,-2.6848,-2.6848,0,-2.6435,-2.6466,-2.6497,-2.6518,-2.6534,-2.6567,-2.6589,-2.6597,-2.6619,-2.6652,-2.6675,-2.6711,-2.6739,-2.6797,-2.6812,-2.6845,-2.6843,-2.6875,-2.6848,-2.6845,-2.6842,-2.6839,-2.6842,-2.688,-2.6881,-2.6881,-2.6882,0,-2.6506,-2.6511,-2.6542,-2.6575,-2.6601,-2.6628,-2.6653,-2.667,-2.6682,-2.6707,-2.6744,-2.6766,-2.6811,-2.6846,-2.6879,-2.6894,-2.689,-2.6891,-2.6899,-2.6897,-2.6891,-2.6893,-2.6801,-2.6888,-2.6887,-2.6887,-2.6887,-2.6886,-2.6555,-2.6582,-2.6608,-2.6643,-2.6664,-2.6688,-2.6715,-2.6729,-2.676,-2.6797,-2.68,-2.684,-2.6865,-2.691,-2.6927,-2.6957,-2.6948,-2.696,-2.6963,-2.6966,-2.6967,-2.6888,-2.6964,-2.6963,-2.6963,-2.6963,-2.6963,0,-2.6625,-2.6642,-2.6674,-2.671,-2.6737,-2.6732,-2.676,-2.6783,-2.6818,-2.6842,-2.6871,-2.6913,-2.6947,-2.6966,-2.7,-2.7021,-2.7019,-2.7029,-2.7027,-2.703,-2.6974,-2.6963,-2.7029,-2.7029,-2.7029,-2.7029,-2.7029,-2.7029,-2.6664,-2.6709,-2.6717,-2.6773,-2.6789,-2.6828,-2.6845,-2.6867,-2.6886,-2.6933,-2.6962,-2.6974,-2.6996,-2.7032,-2.7063,-2.7068,-2.7079,-2.709,-2.7093,-2.7041,-2.7034,-2.7027,-2.7017,-2.7093,-2.7093,-2.7146,-2.7146,-2.7147]},{"header":{"parameterUnit":"m.s-1","parameterCategory":1,"la1":30.2991,"la2":30.254,"lo1":-89.0895,"lo2":-89.0444,"dy":0.0017,"dx":0.0017,"nx":28,"ny":28,"refTime":"2024-02-08T09:00:00:Z","depth":0,"parameterNumber":3,"parameterNumberName":"V-component_of_WINDS"},"data":[0,0,0,0,0,0,0,0,0,0,0,0,0,0,0,0,0,0,0,0,0,0,0,0,0,0,0,0,0,0,0,0,0,0,0,0,0,0,0,0,0,0,0,0,0,0,0,0,0,0,0,0,0,0,0,0,0,0,1.6458,1.6459,0,1.6565,1.6566,1.6567,1.6654,1.6655,1.6656,1.6657,1.6766,1.6768,1.6771,0,0,0,0,0,0,0,0,0,0,0,0,0,1.6328,1.633,1.6457,1.6459,1.646,1.6565,1.6566,1.6568,1.6654,1.6655,1.6656,1.6657,1.6766,1.6768,1.6771,0,0,0,0,0,0,0,0,0,0,0,0,0,1.6405,1.6331,1.6457,1.6516,1.6522,1.6564,1.6566,1.6568,1.6654,1.6655,1.6656,1.6658,1.6765,1.6768,1.6771,1.6764,0,0,1.6781,1.6782,0,0,0,0,0,0,0,0,1.64,1.641,1.6506,1.6512,1.6519,1.6597,1.6561,1.6634,1.6653,1.6604,1.6657,1.6658,1.6709,1.6717,1.6734,1.6769,1.6774,1.6781,1.6783,1.6784,1.6785,0,0,0,0,0,0,0,1.6395,1.6405,1.65,1.6507,1.6515,1.6537,1.6549,1.6575,1.6648,1.6608,1.6615,1.6626,1.6713,1.6731,1.6737,1.6775,1.6781,1.6784,1.6786,1.6787,1.6812,1.6811,0,0,0,0,0,0,1.6381,1.64,1.6497,1.6503,1.6462,1.6538,1.6552,1.6571,1.6648,1.6661,1.6625,1.663,1.6725,1.6734,1.6742,1.674,1.6784,1.6787,1.6789,1.6813,1.6811,1.681,0,0,0,0,0,0,1.6377,1.6388,1.6492,1.6454,1.6469,1.6539,1.6559,1.6572,1.659,1.666,1.6674,1.663,1.6726,1.6737,1.6758,1.6745,1.6789,1.6791,1.6814,1.6812,1.6811,1.6735,0,0,0,0,0,0,1.6373,1.6387,1.6384,1.6453,1.647,1.6506,1.6559,1.6573,1.6596,1.6603,1.6669,1.6681,1.6728,1.6753,1.6761,1.675,1.6794,1.6816,1.6813,1.6811,1.6739,1.673,1.6723,0,0,0,0,0,1.6368,1.6358,1.6384,1.6395,1.6469,1.6505,1.6515,1.657,1.6594,1.6593,1.6638,1.6679,1.6744,1.6754,1.6764,1.6754,1.6817,1.6814,1.6811,1.6742,1.6732,1.6724,0,0,0,0,0,0,1.6286,1.6368,1.6397,1.6409,1.645,1.652,1.652,1.6558,1.6592,1.6598,1.6665,1.6679,1.6693,1.6725,1.6735,1.6752,1.6786,1.6785,1.673,1.6721,1.6713,1.6706,1.6796,0,0,0,0,0,1.6269,1.6291,1.6362,1.6366,1.6385,1.6448,1.6466,1.6505,1.655,1.6568,1.6615,1.6656,1.6687,1.6706,1.6737,1.6744,1.676,1.6741,1.6734,1.6727,1.6726,1.6733,1.6726,1.6801,1.6801,1.6801,0,0,1.6234,1.6282,1.6292,1.635,1.6387,1.6409,1.6462,1.6484,1.6502,1.6571,1.6594,1.663,1.6681,1.6695,1.6704,1.6723,1.6709,1.6723,1.6718,1.672,1.6729,1.6722,1.6716,1.6799,1.6799,1.68,0,0,1.6183,1.6221,1.6229,1.6264,1.6318,1.6361,1.6362,1.6428,1.6454,1.6478,1.6532,1.6554,1.6604,1.6639,1.6664,1.6627,1.6666,1.6635,1.6595,1.6602,1.6596,1.6591,1.6579,1.6574,1.6633,1.6633,1.6633,0,1.6133,1.6169,1.6228,1.6247,1.6271,1.6335,1.6345,1.6376,1.6437,1.6453,1.6474,1.654,1.6579,1.6602,1.6594,1.6611,1.6616,1.6628,1.6592,1.6588,1.6584,1.6574,1.6569,1.6629,1.663,1.663,1.663,0,1.6106,1.613,1.613,1.6189,1.6213,1.6227,1.6288,1.6306,1.6343,1.6383,1.6408,1.6457,1.6501,1.6509,1.6545,1.6538,1.6549,1.6579,1.6616,1.6572,1.6563,1.656,1.6624,1.6625,1.6626,1.6627,0,0,1.6006,1.6097,1.6096,1.6124,1.6189,1.6209,1.6226,1.6269,1.6284,1.6324,1.6341,1.6383,1.6412,1.644,1.648,1.6485,1.6455,1.6516,1.6518,1.6504,1.6453,1.643,1.6424,1.6481,1.648,1.648,1.6449,0,1.5967,1.6001,1.6054,1.6071,1.6095,1.6157,1.6172,1.6213,1.6252,1.6278,1.6321,1.635,1.6386,1.6403,1.6411,1.6457,1.6446,1.646,1.6498,1.6499,1.6484,1.6419,1.6395,1.6363,1.6446,1.6445,1.6445,0,1.5925,1.5962,1.5981,1.6046,1.6058,1.607,1.6115,1.6139,1.6188,1.6215,1.6246,1.6291,1.6313,1.6345,1.6376,1.6385,1.6404,1.6428,1.6429,1.6435,1.647,1.6425,1.6354,1.635,1.644,1.644,1.644,0,1.5852,1.5907,1.5926,1.5948,1.6023,1.603,1.6062,1.6112,1.6135,1.6174,1.619,1.623,1.6252,1.6283,1.6337,1.6355,1.6363,1.64,1.6388,1.6387,1.6388,1.6387,1.632,1.6397,1.6397,1.6398,1.6398,0,1.5803,1.5812,1.5894,1.5906,1.5919,1.5981,1.5992,1.603,1.6074,1.6095,1.615,1.6168,1.6238,1.6265,1.6307,1.6328,1.6337,1.6361,1.6373,1.6357,1.6354,1.6371,1.6375,1.6396,1.6397,1.6397,1.6397,0,1.5724,1.5779,1.5804,1.5873,1.5891,1.5897,1.5957,1.5971,1.6013,1.6039,1.6048,1.6114,1.6149,1.6206,1.6256,1.6285,1.6298,1.6316,1.6282,1.6289,1.6274,1.6275,1.6217,1.6213,1.6291,1.629,1.6289,0,1.5689,1.5698,1.5769,1.5787,1.5816,1.5844,1.5868,1.5929,1.5952,1.6009,1.6016,1.6055,1.6089,1.6141,1.6194,1.6233,1.6254,1.6231,1.626,1.6245,1.6255,1.6255,1.6257,1.6224,1.6223,1.6222,1.6221,0,1.5623,1.565,1.5682,1.5724,1.5751,1.5787,1.5825,1.5837,1.5907,1.5929,1.5965,1.5992,1.6044,1.6083,1.613,1.6163,1.6204,1.6211,1.6211,1.6196,1.6176,1.6188,1.6264,1.6213,1.6213,1.6214,1.6215,1.6215,1.5567,1.5578,1.563,1.5664,1.5699,1.5734,1.5752,1.5796,1.5827,1.5874,1.5909,1.5943,1.5992,1.606,1.6091,1.6119,1.6137,1.6136,1.6136,1.6135,1.613,1.617,1.6127,1.6128,1.6128,1.6128,1.6128,0,1.5505,1.5541,1.5572,1.5624,1.5651,1.5687,1.5732,1.5753,1.5782,1.5825,1.5858,1.59,1.5937,1.5993,1.6035,1.6046,1.6066,1.6055,1.6056,1.6063,1.611,1.6107,1.6039,1.6039,1.6039,1.6039,1.6039,1.6039,1.5476,1.5498,1.5531,1.5571,1.5608,1.5641,1.5664,1.5697,1.5732,1.5776,1.5808,1.5844,1.5892,1.5938,1.5974,1.599,1.6003,1.5987,1.6008,1.6051,1.606,1.6068,1.6065,1.5989,1.5989,1.5959,1.5959,1.5958]}]]